Back to catalog

SL-16 DEB

AliveLEO
NORAD 39907·DEBRIS·🇷🇺 Russia

Launched Mar 26, 1993 from Baikonur Cosmodrome

Loading…

Next Passes (next 24 hours)

TLE

FreshSource: Space-Track

Epoch: Sep 13, 2026, 19:01 UTC

1 39907U 93016CH  26256.79251813  .00000204  00000-0  18891-3 0  9990
2 39907  70.9911 278.6003 0128337  35.3347 325.6183 13.89822509624076

Track SL-16 DEB in real time with AllMySat

Download on the App Store